Regional Weather Roundup
Issued by NWS

Home | Current Version | Previous Version | Text Only | Print | Product List | Glossary Off
Versions: 1 2 3 4 5 6 7 8 9 10 11 12 13 14 15 16 17 18 19 20 21 22 23 24 25 26 27 28 29 30 31 32 33 34 35 36 37 38 39 40 41 42 43 44 45 46 47 48 49 50

000
ASUS45 KBOU 190107
RWRCO

WEATHER ROUNDUP FOR COLORADO
NATIONAL WEATHER SERVICE DENVER/BOULDER CO
700 PM MDT SAT APR 18 2015

NOTE: "FAIR" INDICATES FEW OR NO CLOUDS BELOW 12000 FEET WITH NO
SIGNIFICANT WEATHER AND/OR OBSTRUCTIONS TO VISIBILITY.

COZ001>005-013-030-031-190200-
...NORTHWEST COLORADO...

CITY           SKY/WX    TMP DP  RH WIND       PRES   REMARKS
CRAIG          LGT RAIN  37  33  85 CALM      30.04R
HAYDEN         CLOUDY    34  30  86 W5        30.02F WCI  30
MEEKER         CLOUDY    39  32  76 NW6       30.04R
MOUNT WERNER   NOT AVBL
STEAMBOAT SPGS CLOUDY    32  32  99 CALM      30.00S VSB 1/4
WALDEN         CLOUDY    32  30  93 N18       29.99R WCI  20
$$

COZ006>008-011-190200-
...WEST CENTRAL VALLEYS...

CITY           SKY/WX    TMP DP  RH WIND       PRES   REMARKS
GRAND JUNCTION CLOUDY    44  38  79 S14       30.02R
MONTROSE       CLOUDY    42  38  85 S6        30.06S
EAGLE          CLOUDY    37  34  87 W3        30.02R
RIFLE          CLOUDY    34  32  92 SW3       30.03R
DELTA          CLOUDY    42  38  87 NE5       30.06S
NUCLA          CLOUDY    50  37  62 E16       30.04R
$$

COZ017>023-064>068-190200-
...SOUTHWEST COLORADO...

CITY           SKY/WX    TMP DP  RH WIND       PRES   REMARKS
DURANGO        MOCLDY    51  25  36 N13       29.94S
CORTEZ         CLEAR     57  29  34 N10       29.96F
PAGOSA SPRINGS MOCLDY    43  29  57 NE5       29.96R
TELLURIDE      FLURRIES  34  32  92 W12G17    30.08  WCI  25
WOLF CREEK PAS LGT SNOW  21  21 100 N8G22     30.05F WCI  12
$$

COZ009-010-012-014-032>034-037-058>063-190200-
...CENTRAL COLORADO...

CITY           SKY/WX    TMP DP  RH WIND       PRES   REMARKS
ASPEN          LGT SNOW  31  29  92 NW3       30.00S VSB 1
BUENA VISTA    MOCLDY    39  23  52 W3        29.92R
COPPER MTN     CLOUDY    25  19  80 W20       30.00R WCI  11
BERTHOUD PASS  HVY SNOW  18   9  68 NW29      29.98R VSB<1/4 WCI  -2
COTTONWOOD PAS MOCLDY    34  18  51 W17G28    29.94S WCI  23
GUNNISON       CLOUDY    37  28  70 SW13      30.01S
KREMMLING      CLOUDY    37  28  70 W3        29.98R
LEADVILLE      CLOUDY    27  19  72 NW9G17    29.96F WCI  18
MONARCH PASS   CLOUDY    21  19  93 MISG      30.07R
SALIDA         MOCLDY    42  27  55 W7        29.98S
SUNLIGHT       SNOW     N/A N/A N/A N10G21    30.07S VSB<1/4
WILKERSON PASS CLOUDY    25  23  93 N7G17     29.98S FOG     WCI  17
$$

COZ069>075-190200-
...SAN LUIS VALLEY/SANGRE DE CRISTO MOUNTAINS...

CITY           SKY/WX    TMP DP  RH WIND       PRES   REMARKS
ALAMOSA        CLOUDY    38  31  76 SW6       29.90F
LA VETA PASS   CLOUDY    30  23  74 CALM      29.93S
SAGUACHE       MOCLDY    39  25  56 N14G22    29.92S
$$

COZ035-036-038>040-190200-
...NORTHERN COLORADO FRONT RANGE...

CITY           SKY/WX    TMP DP  RH WIND       PRES   REMARKS
DENVER INTL AP MOCLDY    46  35  65 NW12      29.89R
DMNS CITY PARK   N/A     47  33  58 W10       29.91R
AURORA         MOCLDY    44  34  67 N10       29.91R
FRONT RANGE AP MOCLDY    46  37  71 NW8       29.90R
ERIE MUNI ARPT RAIN      43  36  77 W15       29.92R
BOULDER MUN AP CLOUDY    45  32  61 W10       29.91S
CENTENNIAL     MOCLDY    45  32  60 N14       29.90R
BROOMFIELD     CLOUDY    45  36  70 W20       29.92R
FORT COLLINS   MOCLDY    48  37  66 N14       29.93R
LONGMONT       MOCLDY    49  38  66 NW7       29.93R
$$

COZ041-046-047-076>085-087-088-190200-
...PIKES PEAK/PALMER DIVIDE AND SOUTHERN FOOTHILLS...

CITY           SKY/WX    TMP DP  RH WIND       PRES   REMARKS
COLO. SPRINGS  MOCLDY    43  32  65 CALM      29.89R
A. F. ACADEMY  DRIZZLE   43  29  56 NE16      29.89R
ELLICOTT         N/A    N/A N/A N/A N17G31    29.87F
FALCON         CLOUDY    37  34  89 N6        29.90S
FORT CARSON    MOCLDY    44  34  67 W7        29.86S
LIMON          MOCLDY    46  33  60 N21       29.84S
MONUMENT HILL  MOCLDY    36  30  80 NW8       29.89F
TRINIDAD       LGT RAIN  43  32  65 N14       29.88R
$$

COZ042>045-048>051-090-091-190200-
...NORTHEAST COLORADO...

CITY           SKY/WX    TMP DP  RH WIND       PRES   REMARKS
GREELEY ARPT   PTCLDY    50  36  57 N12       29.90R
AKRON          CLOUDY    44  41  89 NW14      29.85F
BURLINGTON     PTCLDY    48  41  76 N13       29.80F
WRAY           MOCLDY    49  43  79 MISG      29.81F
STERLING       CLOUDY    46  41  81 N7        29.86F
HOLYOKE        MOCLDY    48  41  76 NW18      29.83S
FORT MORGAN    CLOUDY    47  38  70 NE12      29.88F
$$

COZ086-089-092>099-190200-
...SOUTHEAST COLORADO...

CITY           SKY/WX    TMP DP  RH WIND       PRES   REMARKS
PUEBLO         MOCLDY    51  27  39 NW13      29.84S
LA JUNTA       MOCLDY    54  28  36 W10       29.82R
LAMAR          MOCLDY    51  35  54 W8        29.78S
SPRINGFIELD      N/A     51  35  54 W9        29.83R
$$


USA.gov is the U.S. government's official web portal to all federal, state and local government web resources and services.